Regional Weather Roundup
Issued by NWS Grand Forks, ND

Home | Current Version | Previous Version | Graphics & Text | Print | Product List | Glossary On
Versions: 1 2 3 4 5 6 7 8 9 10 11 12 13 14 15 16 17 18 19 20 21 22 23 24 25 26 27 28 29 30 31 32 33 34 35 36 37 38 39 40 41 42 43 44 45 46 47 48 49 50
000
ASUS43 KFGF 252010
RWRFGF
PRAIRIE TO PINES  WEATHER ROUNDUP
NATIONAL WEATHER SERVICE EASTERN NORTH DAKOTA/GRAND FORKS ND
200 PM CST SUN JAN 25 2015

 **SATELLITE DATA USED TO AUGMENT SKY COVER AT AUTOMATED STATIONS**
 *****  WEATHER ACROSS EASTERN NORTH DAKOTA  *****

CITY           SKY/WX    TMP DP  RH WIND       PRES   REMARKS
GRAND FORKS    PTSUNNY   24  13  62 SE5       30.02F WCI  18
GRAND FRKS AFB CLOUDY    24  14  65 S3        30.01F
GRAND FRKS NWS   N/A     27 N/A N/A SW3         N/A
DEVILS LAKE    CLOUDY    21  18  86 SW10      29.95F WCI  10
FARGO          CLOUDY    26  16  65 CALM      30.03F
WAHPETON ARPT  PTCLDY    27  19  74 NW6       30.04F WCI  20
$$

 ***** WEATHER ACROSS CENTRAL AND WESTERN NORTH DAKOTA  *****

CITY           SKY/WX    TMP DP  RH WIND       PRES   REMARKS
BISMARCK       CLOUDY    36  31  82 W7        29.98F
MINOT          CLOUDY    31  28  89 SE7       29.90F FOG     WCI  24
JAMESTOWN      PTSUNNY   25  21  85 S6        29.97F WCI  18
MINOT AFB      CLOUDY    29  29 100 S8        29.90F WCI  22
GARRISON         N/A     34  31  88 W8        29.92F
WILLISTON      MOSUNNY   41  30  65 S9        29.88F
DICKINSON      CLOUDY    41  29  62 SW5       29.90F
HETTINGER      CLOUDY    42  28  57 W5        29.94F
$$

 *****  OTHER AIRPORT OBSERVATIONS IN OUR AREA  *****

CITY           SKY/WX    TMP DP  RH WIND       PRES   REMARKS
WALHALLA         N/A     25  18  74 S6        29.96F WCI  18
GRAFTON AIRPOR NOT AVBL
VALLEY CITY AR NOT AVBL
CANDO          CLOUDY    23  18  80 SW9       29.94F WCI  13
CAVALIER APRT  FAIR      23  16  74 S9        29.98F WCI  13
GWINNER        CLOUDY    27  19  74 W6        30.03F WCI  20
SHEYENNE NWR     N/A     28  16  59 CALM      29.95S
ROLLA          CLOUDY    18  18 100 SW13      29.90F FOG     WCI   4
 ***** THE ABOVE OBSERVATIONS ARE NON NWS ARE NOT QUALITY
       CONTROLLED AND MAY MIS-REPORT RAIN FOR SNOW...
$$

  *****  WEATHER ACROSS NORTHERN MINNESOTA  *****

CITY           SKY/WX    TMP DP  RH WIND       PRES   REMARKS
FLAG ISLAND    CLOUDY    10   3  72 S9        29.99S WCI  -2
WARROAD        CLOUDY    14   5  67 S6        30.00F WCI   5
ROSEAU         CLOUDY    16   7  67 S5        30.00F WCI   9
HALLOCK        CLOUDY    19  10  68 S9        29.99F WCI   9
THF RVR FALLS  CLOUDY    19  10  68 CALM      30.01S
BAUDETTE       CLOUDY    16   6  65 S7        29.98F WCI   6
WASKISH        CLOUDY    19  10  68 CALM      30.00F
CROOKSTON      SUNNY     21  12  68 CALM      30.04S
STEPHEN NDAWN    N/A     18  10  73 S7          N/A  WCI   8
GREENBUSH NDAW   N/A     19   9  63 SE5         N/A  WCI  13
$$
  *****  WEATHER ACROSS CENTRAL AND WEST MINNESOTA  *****

CITY           SKY/WX    TMP DP  RH WIND       PRES   REMARKS
FOSSTON        MOSUNNY   28  16  59 CALM      29.99F
BEMIDJI        PTSUNNY   26  17  67 SW5       29.98F WCI  20
PARK RAPIDS    CLOUDY    27  18  69 SW5       29.98F WCI  22
ELBOW LAKE     FAIR      25  22  87 NW5       30.01S WCI  19
WADENA         CLOUDY    27  18  69 SE5       29.99F WCI  21
DETROIT LAKES  SUNNY     30  21  69 CALM      30.00F
MOORHEAD       MOSUNNY   25  19  80 CALM      30.04F
FERGUS FALLS   SUNNY     25  21  86 W8        30.05S WCI  16
MORRIS MN      MOSUNNY   28  25  86 NW5       30.01S WCI  23
STAPLES        PTSUNNY   27  16  63 CALM      30.01F
$$
  *****  WEATHER ELSEWHERE ACROSS MINNESOTA  *****

CITY           SKY/WX    TMP DP  RH WIND       PRES   REMARKS
DULUTH         FLURRIES  19  13  77 E14       30.01S WCI   6
INTRNTL FALLS  CLOUDY    14   4  64 VRB3      30.00F
ELY            PTSUNNY   18   7  62 S6        30.02F WCI   9
CLOQUET        FLURRIES  21  14  73 E8        30.03S WCI  12
WHEATON        SUNNY     25  19  80 W7        30.06S WCI  17
BRAINERD       SUNNY     24  14  65 CALM      30.02F
HIBBING        PTSUNNY   21  11  65 VRB6      30.01F WCI  13
ALEXANDRIA     CLOUDY    26  20  77 SE6       30.00F WCI  19
SAINT CLOUD    MOSUNNY   26  15  63 NE6       30.03S WCI  19
MINNEAPOLIS    SUNNY     26  13  57 NE8       30.03S WCI  18
$$

  *****  WEATHER ACROSS SOUTH DAKOTA  *****

CITY           SKY/WX    TMP DP  RH WIND       PRES   REMARKS
SIOUX FALLS    CLOUDY    34  30  85 NW7       30.01S
BROOKINGS      NOT AVBL
WATERTOWN      PTSUNNY   30  23  75 NW5       30.00S
HURON          CLOUDY    33  29  85 NW7       30.03S
SISSETON         N/A     26  20  77 N6        30.02F WCI  19
ABERDEEN       CLOUDY    30  25  81 CALM      30.03S
MITCHELL       CLOUDY    36  32  85 NW6       30.03F
PIERRE         PTSUNNY   41  29  62 NW12      30.01F
MOBRIDGE       CLOUDY    40  30  67 NW6       29.97F
RAPID CITY     CLOUDY    47  18  31 S10       29.99F
$$

  *****  SOME WEATHER IN NEARBY STATES *****

CITY           SKY/WX    TMP DP  RH WIND       PRES   REMARKS
GLASGOW MT     SUNNY     43  31  62 SW5       29.84F
GREAT FALLS MT CLOUDY    56  34  43 SW28G35   30.00F
CHEYENNE WY    MOSUNNY   51  26  37 NW21G31   30.11F
SCOTTSBLUFF NE CLOUDY    47  34  60 NW7       30.07F
OMAHA NE       CLOUDY    41  32  70 N14       29.99R
DES MOINES IA  CLOUDY    35  28  75 N14       29.94R
DAVENPORT IA   CLOUDY    29  22  75 NE23G32   29.86R WCI  15
CHICAGO IL     LGT SNOW  28  23  81 NE20G29   29.83R WCI  15
EAU CLAIRE WI  MOSUNNY   24  11  57 NE7       30.02R WCI  16
LA CROSSE WI   MOSUNNY   30  16  56 E8        29.98F WCI  22
$$

  *****  SOME NATIONAL WEATHER *****

CITY           SKY/WX    TMP DP  RH WIND       PRES   REMARKS
LA GUARDIA NY  PTSUNNY   41  17  38 NW10      29.80R
RALEIGH NC     MOSUNNY   54  32  43 S8        29.86F
ATLANTA GA     MOSUNNY   59  28  30 SW13G23   29.78F
NEW ORLEANS LA MOSUNNY   67  39  35 SW17G25   29.92F
OKLAHOMA CITY  MOSUNNY   58  24  27 N35G45    30.00S
ALBUQUERQUE NM MOSUNNY   48  21  34 S3        30.28F
SALT LAKE CITY MOSUNNY   48  29  47 CALM      30.44F
LOS ANGELES CA MOSUNNY   77  27  15 CALM      30.01F
BOISE ID       MOSUNNY   42  34  73 S5        30.44F
SEATTLE WA     PTSUNNY   57  50  77 W3        30.14F
$$

*** WEATHER ACROSS MANITOBA...SASKATCHEWAN AND ONTARIO ***
                ***ONTARIO***

CITY           SKY/WX    TMP DP  RH WIND       PRES   REMARKS
GERALDTON      SUNNY      3  -8  60 N2        30.05F
THUNDER BAY    MOSUNNY   10  -9  40 CALM      30.13F
SIOUX LOOKOUT  MOSUNNY    9  -4  56 S7        29.98F WCI  -3
TORONTO        MOSUNNY   18  -4  38 N9        29.96R WCI   6
BIG TROUT LK   SUNNY     -4  -8  84 SE2       29.98F
PICKLE LAKE    MOSUNNY    5  -8  56 S6        29.97F WCI  -6
DRYDEN         CLOUDY    10  -2  56 S10       29.97F WCI  -3
KENORA         CLOUDY     9   0  66 S8        29.95F WCI  -4
$$
                *** MANITOBA***

CITY           SKY/WX    TMP DP  RH WIND       PRES   REMARKS
BRANDON        CLOUDY    18  16  93 SW12      29.88F FOG     WCI   5
DAUPHIN        SUNNY     25  19  80 W12       29.81F WCI  14
ISLAND LAKE    FLURRIES   3  -2  78 SE9       29.85F WCI -11
PILOT MOUND      N/A     19  18  93 SW14        N/A  WCI   6
THE PAS        LGT SNOW  18  16  93 S14       29.63F VSB 5/8 WCI   4
THOMPSON       LGT SNOW   3  -2  78 S3        29.71F
WINNIPEG       PTSUNNY   18  10  73 S13       29.95F WCI   4
LYNN LAKE      LGT SNOW   5   1  85 SE8       29.54F VSB 3/4 WCI  -8
CHURCHILL      PTSUNNY   -8 -13  77 SE12      29.90F WCI -27
GILLAM         FLURRIES   1  -4  78 SE7       29.82F WCI -11
$$
                ***SASKATCHEWAN***

CITY           SKY/WX    TMP DP  RH WIND       PRES   REMARKS
ESTEVAN        CLOUDY    34  30  86 S10       29.85F
KINDERSLEY     PTSUNNY   39  32  75 W13       29.70R
LLOYDMINSTER   PTSUNNY   45  32  61 W16G23    29.63S
PRINCE ALBERT  LGT RAIN  37  28  70 W15G22    29.55F
REGINA         CLOUDY    34  32  93 SE14      29.77F WCI  24
YORKTON        CLOUDY    27  25  93 S14G20    29.73F WCI  15
N. BATTLEFORD  CLOUDY    43  32  65 W12       29.65S
LA RONGE       PTSUNNY   36  32  87 SW7       29.38F
SASKATOON      PTSUNNY   37  30  75 SW17G23   29.65F
SWIFT CURRENT  SUNNY     46  37  71 SW13G20   29.73R
$$
NOTE: THESE ARE AUTOMATED STATIONS WITH LIMITED QUALITY CONTROL
      "FAIR" INDICATES FEW OR NO CLOUDS BELOW 12,000 FEET WITH NO
      SIGNIFICANT WEATHER AND/OR OBSTRUCTIONS TO VISIBILITY.
      SKY/WX - SKY CONDITION AND SIGNIFICANT WEATHER.
      TMP - AIR TEMPERATURE.    DP   - DEWPOINT TEMPERATURE.
      RH  - RELATIVE HUMIDITY.  PRES - PRESSURE.
      HX  - HEAT INDEX.         WCI  - WIND CHILL INDEX.
$



USA.gov is the U.S. government's official web portal to all federal, state and local government web resources and services.